Tracking 23762 objects as of 22-Oct-2021
HD Live streaming from Space Station
objects crossing your sky now

FREGAT R/B

Track FREGAT R/B now!


NORAD ID: 44300
Int'l Code: 2019-030B
Perigee: 19,251.6 km
Apogee: 19,683.1 km
Inclination: 64.4 °
Period: 688.9 minutes
Semi major axis: 25838 km
RCS: Unknown
Launch date: May 27, 2019
Source: Commonwealth of Independent States (former USSR) (CIS)
Launch site: PLESETSK MISSILE AND SPACE COMPLEX (PKMTR)

Note: This is a ROCKET BODY
aabbcc
Your satellite tracking list
Your tracking list is empty




NASA's NSSDC Master Catalog

Two Line Element Set (TLE):
1 44300U 19030B   21294.20280375 -.00000013  00000-0  00000-0 0  9994
2 44300  64.4438 251.3461 0083490 134.1649 226.4990  2.09028897 18350
Source of the keplerian elements: AFSPC